Change the Weather History Date:

Friday, November 30, 2012

  Actual Average Record
Temperature  
Mean Temperature 70 °F 60 °F  
Max Temperature 74 °F 67 °F 84 °F (2000)
Min Temperature 65 °F 54 °F 30 °F (1877)
Degree Days  
Heating Degree Days 0 6  
Month to date heating degree days 68 93  
Since 1 July heating degree days 83 103  
Cooling Degree Days 5 1  
Month to date cooling degree days 115 97  
Year to date cooling degree days 3864 3289  
Growing Degree Days 18 (Base 50)    
Moisture  
Dew Point 65 °F    
Average Humidity 90    
Maximum Humidity 100    
Minimum Humidity 79    
Precipitation  
Precipitation 0.00 in 0.17 in 1.40 in (1921)
Month to date precipitation 0.86 4.51  
Year to date precipitation 44.34 47.24  
Snow  
Snow 0.00 in - 0.00 in (2002)
Month to date snowfall 0.0  
Since 1 July snowfall 0.0  
Since 1 September snowfall 0.0  
Snow Depth 0.00 in    
Sea Level Pressure  
Sea Level Pressure 30.15 in    
Wind  
Wind Speed 10 mph (ESE)    
Max Wind Speed 14 mph    
Max Gust Speed 24 mph    
Visibility 10 miles    
Events      
T = Trace of Precipitation, MM = Missing Value Source: NWS Daily Summary

Daily Weather History Graph

Daily Weather History Graph

Search for Another Location

Airport or City:

Trip Planner

Search our weather history database for the weather conditions in past years. The results will help you decide how hot, cold, wet, or windy it might be!

Date:

Astronomy

Nov. 30, 2012 Rise Set
Actual Time 6:55 AM CST 5:20 PM CST
Civil Twilight 6:29 AM CST 5:46 PM CST
Nautical Twilight 6:00 AM CST 6:15 PM CST
Astronomical Twilight 5:31 AM CST 6:44 PM CST
Moon 7:15 PM CST (11/30) 8:28 AM CST (11/30)
Length of Visible Light 11h 16m
Length of Day
10h 25m
Waning Gibbous, 96% of the Moon is Illuminated
Nov 30
Waning Gibbous
Dec 6
Last Quarter
Dec 13
New
Dec 19
First Quarter
Dec 28
Full

Hourly Weather History & Observations

Time (CST) Temp. Dew Point Humidity Pressure Visibility Wind Dir Wind Speed Gust Speed Precip Events Conditions
12:52 AM 64.9 °F 64.0 °F 97% 30.18 in 10.0 mi East 10.4 mph - N/A   Mostly Cloudy
1:52 AM 66.0 °F 64.0 °F 93% 30.17 in 10.0 mi East 10.4 mph - N/A   Clear
2:52 AM 66.0 °F 64.0 °F 93% 30.17 in 10.0 mi East 6.9 mph - N/A   Overcast
3:52 AM 66.9 °F 64.0 °F 90% 30.16 in 10.0 mi East 6.9 mph - N/A   Overcast
4:52 AM 66.0 °F 64.0 °F 93% 30.15 in 10.0 mi ESE 8.1 mph - N/A   Overcast
5:52 AM 66.0 °F 64.0 °F 93% 30.16 in 10.0 mi ESE 8.1 mph - N/A   Mostly Cloudy
6:52 AM 66.9 °F 64.0 °F 90% 30.17 in 10.0 mi East 8.1 mph - N/A   Scattered Clouds
7:52 AM 68.0 °F 64.9 °F 90% 30.18 in 10.0 mi East 8.1 mph - N/A   Overcast
8:52 AM 69.1 °F 64.9 °F 87% 30.19 in 10.0 mi East 11.5 mph - N/A   Overcast
9:52 AM 70.0 °F 64.9 °F 84% 30.20 in 10.0 mi ESE 10.4 mph - N/A   Overcast
10:52 AM 73.0 °F 66.0 °F 79% 30.19 in 10.0 mi ESE 11.5 mph - N/A   Mostly Cloudy
11:52 AM 72.0 °F 66.0 °F 81% 30.18 in 10.0 mi ESE 11.5 mph - N/A   Mostly Cloudy
12:52 PM 73.0 °F 66.0 °F 79% 30.15 in 10.0 mi ESE 11.5 mph - N/A   Overcast
1:35 PM 71.6 °F 66.2 °F 83% 30.13 in 10.0 mi ESE 9.2 mph - N/A   Overcast
1:52 PM 72.0 °F 66.9 °F 84% 30.13 in 10.0 mi ESE 8.1 mph - N/A   Overcast
2:11 PM 73.4 °F 66.2 °F 78% 30.12 in 10.0 mi ESE 9.2 mph - N/A   Overcast
2:28 PM 71.6 °F 66.2 °F 83% 30.12 in 10.0 mi ESE 11.5 mph - N/A   Overcast
2:41 PM 71.6 °F 66.2 °F 83% 30.12 in 10.0 mi SE 12.7 mph - N/A   Overcast
2:52 PM 72.0 °F 66.9 °F 84% 30.12 in 10.0 mi SE 11.5 mph - N/A   Overcast
3:52 PM 70.0 °F 66.0 °F 87% 30.12 in 10.0 mi SE 11.5 mph - N/A   Mostly Cloudy
4:52 PM 69.1 °F 66.0 °F 90% 30.12 in 10.0 mi SE 8.1 mph - N/A   Partly Cloudy
5:52 PM 68.0 °F 66.0 °F 93% 30.12 in 10.0 mi SE 11.5 mph - N/A   Scattered Clouds
6:52 PM 68.0 °F 66.9 °F 96% 30.12 in 10.0 mi SSE 17.3 mph - N/A   Mostly Cloudy
7:52 PM 68.0 °F 66.0 °F 93% 30.14 in 10.0 mi SE 11.5 mph - N/A   Partly Cloudy
8:52 PM 66.9 °F 64.9 °F 93% 30.14 in 10.0 mi SE 11.5 mph - N/A   Clear
9:52 PM 66.9 °F 66.0 °F 97% 30.15 in 10.0 mi SE 6.9 mph - N/A   Mostly Cloudy
10:52 PM 68.0 °F 66.0 °F 93% 30.15 in 10.0 mi SE 6.9 mph - N/A   Mostly Cloudy
11:52 PM 69.1 °F 66.9 °F 93% 30.15 in 10.0 mi SE 9.2 mph - N/A   Overcast